period_start,C,m1,H,J0,J1,J2,J3,J4,J5,JA,JB,JC,JD,JJ,JK,JN,#
2016-03-06 00:04:18,0.10,2.78,0.00,24.79,27.84,31.32,14.62,49.11,1027.34,2029.42,2544.99,2432.44,2751.44,600.14,598.80,39.65,0000 0000 0000 0000 000000
2016-03-06 00:09:19,0.06,2.78,0.00,24.76,27.85,31.33,14.56,49.27,1027.32,2029.21,2543.71,2431.57,2750.46,600.26,599.03,39.70,0000 0000 0000 0000 000000
2016-03-06 00:14:20,0.08,2.79,0.00,24.79,27.85,31.33,14.55,49.21,1027.36,2029.15,2542.37,2430.68,2749.37,599.88,598.55,39.75,0000 0000 0000 0000 000000
2016-03-06 00:19:22,0.07,2.79,0.00,24.78,27.85,31.34,14.56,49.21,1027.35,2029.11,2541.15,2429.70,2748.36,599.84,598.52,39.80,0000 0000 0000 0000 000000
2016-03-06 00:24:23,0.08,2.80,0.00,24.79,27.87,31.34,14.50,49.15,1027.36,2029.04,2539.79,2428.73,2747.25,599.74,598.54,39.85,0000 0000 0000 0000 000000
2016-03-06 00:29:24,0.08,2.80,0.00,24.80,27.87,31.35,14.55,49.11,1027.36,2029.04,2538.47,2427.85,2746.16,599.88,598.62,39.91,0000 0000 0000 0000 000000
2016-03-06 00:34:25,0.08,2.81,0.00,24.77,27.87,31.36,14.57,49.11,1027.35,2029.04,2537.29,2426.90,2745.14,600.03,598.78,39.96,0000 0000 0000 0000 000000
2016-03-06 00:39:26,0.09,2.81,0.00,24.74,27.88,31.36,14.53,49.06,1027.29,2029.04,2535.93,2425.94,2744.05,599.91,598.62,40.01,0000 0000 0000 0000 000000
2016-03-06 00:44:28,0.10,2.82,0.00,24.74,27.90,31.37,14.52,49.12,1027.21,2029.01,2534.53,2424.93,2742.89,600.20,599.00,40.06,0000 0000 0000 0000 000000
2016-03-06 00:49:29,0.09,2.82,0.00,24.74,27.90,31.38,14.56,49.13,1027.04,2029.01,2533.20,2423.97,2741.77,599.82,598.41,40.11,0000 0000 0000 0000 000000
2016-03-06 00:54:30,0.10,2.83,0.00,24.74,27.90,31.39,14.51,49.15,1027.20,2029.01,2531.79,2422.95,2740.62,599.72,598.43,40.16,0000 0000 0000 0000 000000
2016-03-06 00:59:31,0.08,2.83,0.00,24.72,27.92,31.40,14.54,49.08,1027.26,2029.01,2530.56,2422.01,2739.64,599.98,598.85,40.21,0000 0000 0000 0000 000000
2016-03-06 01:04:33,0.09,2.84,0.00,24.74,27.92,31.41,14.59,49.08,1027.23,2029.00,2529.12,2421.00,2738.43,600.21,599.00,40.26,0000 0000 0000 0000 000000
2016-03-06 01:09:34,0.08,2.84,0.00,24.72,27.92,31.43,14.55,49.36,1026.97,2029.00,2527.79,2420.03,2737.31,599.72,598.36,40.31,0000 0000 0000 0000 000000
2016-03-06 01:14:35,0.09,2.84,0.00,24.69,27.94,31.43,14.53,49.22,1026.87,2029.00,2526.43,2419.10,2736.30,600.09,598.72,40.36,0000 0000 0000 0000 000000
2016-03-06 01:19:36,0.08,2.85,0.00,24.69,27.95,31.43,14.59,49.25,1026.85,2029.00,2525.12,2418.14,2735.26,600.06,598.64,40.41,0000 0000 0000 0000 000000
2016-03-06 01:24:37,0.09,2.85,0.00,24.70,27.95,31.44,14.55,49.33,1026.78,2029.00,2523.79,2417.20,2734.16,599.68,598.35,40.46,0000 0000 0000 0000 000000
2016-03-06 01:29:38,0.09,2.86,0.00,24.67,27.95,31.47,14.58,49.37,1026.61,2029.00,2522.48,2416.22,2733.04,600.09,598.53,40.51,0000 0000 0000 0000 000000
2016-03-06 01:34:40,0.09,2.86,0.00,24.64,27.96,31.46,14.50,49.18,1026.41,2029.00,2521.16,2415.31,2731.91,599.84,598.23,40.56,0000 0000 0000 0000 000000
2016-03-06 01:39:41,0.10,2.87,0.00,24.66,27.97,31.47,14.55,49.25,1026.38,2029.00,2519.71,2414.30,2730.73,600.01,598.33,40.61,0000 0000 0000 0000 000000
2016-03-06 01:44:42,0.09,2.87,0.00,24.63,27.97,31.47,14.57,49.31,1026.38,2029.00,2518.39,2413.34,2729.67,600.07,598.74,40.66,0000 0000 0000 0000 000000
2016-03-06 01:49:43,0.09,2.88,0.00,24.62,27.97,31.49,14.55,49.39,1026.37,2029.00,2516.88,2412.31,2728.59,599.48,597.96,40.71,0000 0000 0000 0000 000000
2016-03-06 01:54:44,0.09,2.88,0.00,24.62,27.98,31.49,14.61,49.27,1026.38,2029.00,2515.44,2411.23,2727.40,600.05,598.54,40.77,0000 0000 0000 0000 000000
2016-03-06 01:59:46,0.09,2.89,0.00,24.60,28.00,31.53,14.51,49.31,1026.38,2029.00,2513.90,2410.13,2726.14,599.73,598.25,40.82,0000 0000 0000 0000 000000
2016-03-06 02:04:47,0.10,2.89,0.00,24.59,28.00,31.53,14.60,49.37,1026.39,2028.99,2512.57,2409.14,2724.93,599.92,598.39,40.87,0000 0000 0000 0000 000000
2016-03-06 02:09:49,0.09,2.90,0.00,24.58,28.00,31.54,14.64,49.32,1026.53,2028.98,2511.20,2408.07,2723.67,599.96,598.60,40.92,0000 0000 0000 0000 000000
2016-03-06 02:14:50,0.10,2.90,0.00,24.58,28.01,31.56,14.60,49.24,1026.75,2028.97,2509.66,2406.97,2722.53,599.86,598.58,40.97,0000 0000 0000 0000 000000
2016-03-06 02:19:51,0.09,2.91,0.00,24.56,28.02,31.57,14.67,49.25,1026.87,2028.94,2508.24,2405.88,2721.31,600.14,598.92,41.02,0000 0000 0000 0000 000000
2016-03-06 02:24:52,0.10,2.91,0.00,24.55,28.02,31.58,14.57,49.34,1026.87,2028.96,2506.80,2404.88,2720.08,599.61,598.48,41.07,0000 0000 0000 0000 000000
2016-03-06 02:29:53,0.10,2.92,0.00,24.55,28.04,31.58,14.68,49.22,1026.87,2028.91,2505.33,2403.86,2718.82,600.28,599.09,41.12,0000 0000 0000 0000 000000
2016-03-06 02:34:54,0.08,2.92,0.00,24.56,28.05,31.58,14.53,49.21,1026.87,2028.81,2503.85,2402.76,2717.62,600.02,598.91,41.17,0000 0000 0000 0000 000000
2016-03-06 02:39:55,0.09,2.93,0.00,24.55,28.06,31.61,14.49,49.12,1026.87,2028.62,2502.43,2401.64,2716.41,599.74,598.69,41.22,0000 0000 0000 0000 000000
2016-03-06 02:44:57,0.08,2.93,0.00,24.55,28.07,31.64,14.59,49.17,1026.87,2028.42,2500.84,2400.57,2715.12,600.28,599.20,41.27,0000 0000 0000 0000 000000
2016-03-06 02:49:58,0.11,2.94,0.00,24.55,28.07,31.65,14.64,49.31,1026.87,2028.49,2499.46,2399.59,2713.88,600.05,598.97,41.32,0000 0000 0000 0000 000000
2016-03-06 02:55:00,0.09,2.94,0.00,24.55,28.08,31.65,14.66,49.26,1026.86,2028.30,2497.99,2398.49,2712.74,600.20,599.15,41.37,0000 0000 0000 0000 000000
2016-03-06 03:00:01,0.07,2.95,0.00,24.56,28.10,31.66,14.56,49.15,1026.83,2028.12,2496.48,2397.31,2711.47,599.92,598.86,41.42,0000 0000 0000 0000 000000
2016-03-06 03:05:03,0.08,2.95,0.00,24.56,28.10,31.66,14.64,49.17,1026.83,2028.06,2495.08,2396.29,2710.24,600.32,599.19,41.47,0000 0000 0000 0000 000000
2016-03-06 03:10:04,0.11,2.96,0.00,24.58,28.10,31.68,14.62,49.14,1026.85,2028.08,2493.58,2395.20,2708.99,599.87,598.64,41.52,0000 0000 0000 0000 000000
2016-03-06 03:15:05,0.10,2.96,0.00,24.58,28.10,31.68,14.59,49.15,1026.87,2028.04,2492.07,2394.04,2707.67,600.03,599.02,41.57,0000 0000 0000 0000 000000
2016-03-06 03:20:07,0.11,2.97,0.00,24.58,28.11,31.68,14.57,49.09,1026.87,2028.02,2490.48,2392.86,2706.39,600.03,598.96,41.62,0000 0000 0000 0000 000000
2016-03-06 03:25:08,0.11,2.97,0.00,24.57,28.12,31.69,14.60,49.09,1026.87,2028.01,2488.86,2391.72,2705.04,600.06,598.92,41.67,0000 0000 0000 0000 000000
2016-03-06 03:30:09,0.11,2.98,0.00,24.57,28.12,31.70,14.58,49.07,1026.87,2028.01,2487.36,2390.63,2703.73,599.92,598.79,41.73,0000 0000 0000 0000 000000
2016-03-06 03:35:10,0.11,2.98,0.00,24.59,28.12,31.70,14.59,49.08,1026.87,2028.02,2485.75,2389.49,2702.49,600.00,598.84,41.78,0000 0000 0000 0000 000000
2016-03-06 03:40:11,0.10,2.99,0.00,24.59,28.12,31.71,14.68,49.04,1026.73,2028.01,2484.20,2388.34,2701.22,600.04,598.72,41.83,0000 0000 0000 0000 000000
2016-03-06 03:45:13,0.11,3.00,0.00,24.60,28.14,31.69,14.60,49.08,1026.41,2028.01,2482.64,2387.24,2699.91,600.19,598.70,41.88,0000 0000 0000 0000 000000
2016-03-06 03:50:14,0.11,3.00,0.00,24.60,28.15,31.70,14.52,49.12,1026.39,2028.01,2480.98,2386.04,2698.58,599.72,598.25,41.93,0000 0000 0000 0000 000000
2016-03-06 03:55:15,0.10,3.01,0.00,24.60,28.15,31.69,14.59,49.15,1026.39,2028.00,2479.46,2384.89,2697.24,600.03,598.50,41.98,0000 0000 0000 0000 000000
2016-03-06 04:00:17,0.12,3.01,0.00,24.63,28.16,31.69,14.55,49.06,1026.38,2028.00,2477.78,2383.75,2695.89,600.14,598.60,42.03,0000 0000 0000 0000 000000
2016-03-06 04:05:18,0.11,3.02,0.00,24.62,28.17,31.70,14.50,49.08,1026.38,2028.00,2476.19,2382.55,2694.56,599.72,598.23,42.08,0000 0000 0000 0000 000000
2016-03-06 04:10:19,0.10,3.03,0.00,24.61,28.17,31.69,14.53,49.04,1026.39,2028.00,2474.58,2381.43,2693.29,599.86,598.33,42.13,0000 0000 0000 0000 000000
2016-03-06 04:15:21,0.11,3.03,0.00,24.63,28.17,31.68,14.53,49.07,1026.39,2028.00,2472.95,2380.27,2691.91,599.75,598.21,42.18,0000 0000 0000 0000 000000
2016-03-06 04:20:22,0.12,3.04,0.00,24.62,28.17,31.68,14.58,49.18,1026.40,2028.00,2471.38,2379.07,2690.58,599.69,598.35,42.23,0000 0000 0000 0000 000000
2016-03-06 04:25:24,0.11,3.04,0.00,24.61,28.17,31.67,14.62,49.29,1026.41,2028.00,2469.71,2377.83,2689.23,600.40,598.86,42.28,0000 0000 0000 0000 000000
2016-03-06 04:30:25,0.11,3.05,0.00,24.62,28.17,31.68,14.67,49.19,1026.40,2028.00,2468.14,2376.70,2687.90,600.46,598.90,42.33,0000 0000 0000 0000 000000
2016-03-06 04:35:26,0.11,3.05,0.00,24.62,28.17,31.67,14.62,49.14,1026.40,2028.00,2466.52,2375.56,2686.66,600.27,598.72,42.38,0000 0000 0000 0000 000000
2016-03-06 04:40:28,0.11,3.06,0.00,24.62,28.17,31.68,14.54,49.17,1026.39,2028.00,2464.86,2374.38,2685.35,599.85,598.40,42.43,0000 0000 0000 0000 000000
2016-03-06 04:45:29,0.11,3.07,0.00,24.63,28.17,31.68,14.60,49.26,1026.38,2027.99,2463.19,2373.20,2683.94,600.07,598.55,42.48,0000 0000 0000 0000 000000
2016-03-06 04:50:30,0.11,3.07,0.00,24.63,28.17,31.69,14.56,49.12,1026.37,2027.99,2461.51,2372.03,2682.60,600.13,598.58,42.53,0000 0000 0000 0000 000000
2016-03-06 04:55:31,0.10,3.08,0.00,24.59,28.17,31.69,14.50,49.12,1026.32,2027.99,2459.96,2370.90,2681.44,599.87,598.34,42.59,0000 0000 0000 0000 000000
2016-03-06 05:00:33,0.11,3.08,0.00,24.58,28.17,31.68,14.54,49.17,1026.33,2027.99,2458.45,2369.77,2680.16,599.94,598.52,42.64,0000 0000 0000 0000 000000
2016-03-06 05:05:34,0.10,3.09,0.00,24.60,28.17,31.68,14.66,49.18,1026.32,2027.99,2456.88,2368.75,2678.90,600.17,598.67,42.69,0000 0000 0000 0000 000000
2016-03-06 05:10:35,0.11,3.09,0.00,24.58,28.17,31.68,14.66,49.10,1026.35,2027.99,2455.41,2367.62,2677.64,600.29,598.83,42.74,0000 0000 0000 0000 000000
2016-03-06 05:15:36,0.09,3.10,0.00,24.59,28.17,31.67,14.61,49.04,1026.38,2027.99,2453.86,2366.73,2676.44,600.10,598.56,42.79,0000 0000 0000 0000 000000
2016-03-06 05:20:37,0.10,3.11,0.00,24.61,28.17,31.68,14.66,49.06,1026.38,2027.99,2452.41,2365.66,2675.21,600.09,598.62,42.84,0000 0000 0000 0000 000000
2016-03-06 05:25:38,0.11,3.11,0.00,24.60,28.17,31.68,14.55,49.23,1026.38,2027.99,2450.82,2364.52,2673.89,600.07,598.61,42.89,0000 0000 0000 0000 000000
2016-03-06 05:30:40,0.10,3.12,0.00,24.60,28.17,31.68,14.58,49.16,1026.37,2027.99,2449.37,2363.47,2672.65,600.29,598.81,42.94,0000 0000 0000 0000 000000
2016-03-06 05:35:41,0.11,3.12,0.00,24.63,28.17,31.66,14.59,49.07,1026.17,2027.99,2447.75,2362.29,2671.38,600.10,598.44,42.99,0000 0000 0000 0000 000000
2016-03-06 05:40:42,0.09,3.13,0.00,24.62,28.17,31.66,14.58,49.17,1025.91,2027.99,2446.23,2361.22,2670.14,599.95,598.11,43.04,0000 0000 0000 0000 000000
2016-03-06 05:45:43,0.11,3.13,0.00,24.61,28.17,31.65,14.57,49.20,1025.90,2027.99,2444.75,2360.14,2668.89,600.07,598.30,43.09,0000 0000 0000 0000 000000
2016-03-06 05:50:44,0.10,3.14,0.00,24.61,28.17,31.66,14.54,49.08,1025.91,2027.99,2443.17,2359.01,2667.65,599.75,597.98,43.14,0000 0000 0000 0000 000000
2016-03-06 05:55:46,0.11,3.14,0.00,24.60,28.17,31.67,14.58,48.97,1026.00,2027.99,2441.60,2357.92,2666.43,600.05,598.31,43.19,0000 0000 0000 0000 000000
2016-03-06 06:00:47,0.10,3.15,0.00,24.59,28.17,31.65,14.57,49.00,1026.22,2027.99,2440.10,2356.82,2665.16,600.42,598.87,43.24,0000 0000 0000 0000 000000
2016-03-06 06:05:48,0.11,3.16,0.00,24.61,28.17,31.66,14.58,48.96,1026.13,2027.99,2438.54,2355.72,2663.89,600.01,598.38,43.29,0000 0000 0000 0000 000000
2016-03-06 06:10:49,0.12,3.16,0.00,24.61,28.17,31.65,14.58,49.12,1026.01,2027.99,2436.92,2354.66,2662.64,600.32,598.62,43.34,0000 0000 0000 0000 000000
2016-03-06 06:15:50,0.11,3.17,0.00,24.63,28.17,31.66,14.61,49.23,1025.92,2027.99,2435.44,2353.52,2661.39,600.25,598.44,43.39,0000 0000 0000 0000 000000
2016-03-06 06:20:51,0.10,3.17,0.00,24.64,28.17,31.65,14.58,49.02,1025.91,2027.99,2433.90,2352.47,2660.21,600.43,598.53,43.44,0000 0000 0000 0000 000000
2016-03-06 06:25:52,0.11,3.18,0.00,24.65,28.17,31.65,14.54,49.13,1025.91,2027.99,2432.40,2351.38,2658.87,600.02,598.34,43.50,0000 0000 0000 0000 000000
2016-03-06 06:30:53,0.11,3.18,0.00,24.65,28.17,31.65,14.52,48.98,1026.04,2027.99,2430.83,2350.19,2657.57,599.94,598.16,43.55,0000 0000 0000 0000 000000
2016-03-06 06:35:55,0.10,3.19,0.00,24.63,28.17,31.64,14.58,49.02,1026.28,2027.99,2429.27,2349.05,2656.26,599.89,598.29,43.60,0000 0000 0000 0000 000000
2016-03-06 06:40:56,0.12,3.20,0.00,24.64,28.17,31.64,14.58,48.91,1026.24,2027.99,2427.69,2347.91,2654.95,599.96,598.28,43.65,0000 0000 0000 0000 000000
2016-03-06 06:45:57,0.12,3.20,0.00,24.64,28.17,31.64,14.59,49.02,1025.98,2027.99,2426.10,2346.79,2653.67,599.91,598.08,43.70,0000 0000 0000 0000 000000
2016-03-06 06:50:58,0.12,3.21,0.00,24.68,28.17,31.63,14.55,48.92,1025.94,2027.99,2424.47,2345.57,2652.28,599.97,598.09,43.75,0000 0000 0000 0000 000000
2016-03-06 06:55:59,0.11,3.21,0.00,24.67,28.17,31.62,14.61,49.17,1025.94,2027.99,2422.90,2344.47,2651.02,600.11,598.24,43.80,0000 0000 0000 0000 000000
2016-03-06 07:01:00,0.11,3.22,0.00,24.69,28.17,31.61,14.62,49.18,1025.95,2027.99,2421.35,2343.34,2649.73,599.94,598.06,43.85,0000 0000 0000 0000 000000
2016-03-06 07:06:02,0.11,3.23,0.00,24.70,28.17,31.61,14.57,49.01,1026.16,2027.99,2419.81,2342.24,2648.47,600.02,598.26,43.90,0000 0000 0000 0000 000000
2016-03-06 07:11:03,0.10,3.23,0.00,24.73,28.17,31.60,14.63,49.03,1026.21,2027.99,2418.32,2341.14,2647.28,600.25,598.37,43.95,0000 0000 0000 0000 000000
2016-03-06 07:16:04,0.11,3.24,0.00,24.72,28.17,31.59,14.55,48.97,1026.02,2027.99,2416.77,2339.99,2645.93,599.69,597.82,44.00,0000 0000 0000 0000 000000
2016-03-06 07:21:05,0.12,3.24,0.00,24.73,28.17,31.60,14.60,48.95,1025.92,2027.99,2415.24,2338.84,2644.65,600.29,598.19,44.05,0000 0000 0000 0000 000000
2016-03-06 07:26:07,0.11,3.25,0.00,24.73,28.17,31.58,14.62,48.93,1025.91,2027.99,2413.70,2337.77,2643.49,600.50,598.41,44.10,0000 0000 0000 0000 000000
2016-03-06 07:31:08,0.11,3.25,0.00,24.71,28.16,31.58,14.55,48.97,1025.91,2027.99,2412.09,2336.63,2642.16,600.11,598.13,44.15,0000 0000 0000 0000 000000
2016-03-06 07:36:09,0.11,3.26,0.00,24.72,28.15,31.56,14.52,49.06,1025.90,2027.99,2410.53,2335.52,2640.88,600.20,598.20,44.20,0000 0000 0000 0000 000000
2016-03-06 07:41:11,0.11,3.26,0.00,24.75,28.15,31.57,14.54,49.08,1025.90,2027.99,2408.98,2334.43,2639.67,599.96,597.98,44.25,0000 0000 0000 0000 000000
2016-03-06 07:46:12,0.10,3.27,0.00,24.71,28.15,31.55,14.60,48.98,1025.89,2027.99,2407.46,2333.37,2638.48,600.17,598.31,44.30,0000 0000 0000 0000 000000
2016-03-06 07:51:13,0.11,3.28,0.00,24.72,28.14,31.56,14.65,49.08,1025.89,2027.99,2405.84,2332.27,2637.22,600.27,598.31,44.35,0000 0000 0000 0000 000000
2016-03-06 07:56:14,0.10,3.28,0.00,24.70,28.12,31.54,14.54,48.98,1025.89,2027.99,2404.27,2331.11,2635.92,600.09,598.19,44.40,0000 0000 0000 0000 000000
2016-03-06 08:01:15,0.12,3.29,0.00,24.72,28.12,31.53,14.52,48.93,1025.88,2027.98,2402.67,2329.93,2634.62,599.87,597.79,44.46,0000 0000 0000 0000 000000
2016-03-06 08:06:17,0.10,3.29,0.00,24.70,28.12,31.54,14.52,49.03,1025.84,2027.99,2401.11,2328.86,2633.43,599.87,597.87,44.51,0000 0000 0000 0000 000000
2016-03-06 08:11:18,0.12,3.30,0.00,24.71,28.12,31.53,14.54,49.02,1025.86,2027.99,2399.55,2327.77,2632.18,600.40,598.35,44.56,0000 0000 0000 0000 000000
2016-03-06 08:16:19,0.12,3.31,0.00,24.73,28.10,31.53,14.51,48.86,1025.84,2027.99,2397.93,2326.63,2630.89,599.79,597.75,44.61,0000 0000 0000 0000 000000
2016-03-06 08:21:21,0.10,3.31,0.00,24.72,28.10,31.53,14.57,48.92,1025.84,2027.99,2396.48,2325.62,2629.72,600.29,598.24,44.66,0000 0000 0000 0000 000000
2016-03-06 08:26:22,0.11,3.32,0.00,24.72,28.10,31.51,14.48,48.98,1025.78,2027.99,2394.94,2324.58,2628.53,600.10,598.27,44.71,0000 0000 0000 0000 000000
2016-03-06 08:31:23,0.10,3.32,0.00,24.73,28.08,31.52,14.58,48.99,1025.57,2027.99,2393.53,2323.52,2627.32,600.02,597.74,44.76,0000 0000 0000 0000 000000
2016-03-06 08:36:24,0.11,3.33,0.00,24.75,28.07,31.50,14.48,49.11,1025.65,2027.99,2391.95,2322.40,2626.09,599.64,597.38,44.81,0000 0000 0000 0000 000000
2016-03-06 08:41:25,0.11,3.34,0.00,24.74,28.07,31.51,14.69,49.25,1025.86,2027.99,2390.37,2321.34,2624.86,600.36,598.29,44.86,0000 0000 0000 0000 000000
2016-03-06 08:46:27,0.11,3.34,0.00,24.72,28.05,31.51,14.57,48.96,1025.89,2028.00,2388.87,2320.31,2623.69,600.11,598.06,44.91,0000 0000 0000 0000 000000
2016-03-06 08:51:28,0.10,3.35,0.00,24.71,28.05,31.50,14.52,48.83,1025.89,2028.00,2387.55,2319.25,2622.63,600.05,598.07,44.96,0000 0000 0000 0000 000000
2016-03-06 08:56:29,0.10,3.35,0.00,24.72,28.05,31.49,14.53,48.80,1025.89,2028.00,2386.06,2318.17,2621.43,599.85,597.85,45.01,0000 0000 0000 0000 000000
2016-03-06 09:01:31,0.11,3.36,0.00,24.73,28.05,31.48,14.54,48.84,1025.89,2028.00,2384.50,2317.05,2620.19,600.00,597.91,45.06,0000 0000 0000 0000 000000
2016-03-06 09:06:32,0.09,3.36,0.00,24.76,28.04,31.48,14.51,48.89,1025.89,2028.01,2383.14,2316.03,2619.04,599.93,597.84,45.11,0000 0000 0000 0000 000000
2016-03-06 09:11:33,0.12,3.37,0.00,24.76,28.03,31.49,14.60,49.04,1025.89,2028.00,2381.65,2314.96,2617.74,600.34,598.08,45.16,0000 0000 0000 0000 000000
2016-03-06 09:16:34,0.10,3.37,0.00,24.75,28.02,31.46,14.55,48.85,1025.90,2028.01,2380.21,2313.92,2616.55,600.02,597.96,45.21,0000 0000 0000 0000 000000
2016-03-06 09:21:35,0.11,3.38,0.00,24.76,28.02,31.46,14.61,48.87,1025.91,2028.02,2378.74,2312.83,2615.38,600.37,598.30,45.26,0000 0000 0000 0000 000000
2016-03-06 09:26:37,0.11,3.39,0.00,24.77,28.02,31.46,14.56,48.86,1025.91,2028.01,2377.29,2311.74,2614.05,599.97,597.90,45.31,0000 0000 0000 0000 000000
2016-03-06 09:31:38,0.11,3.39,0.00,24.77,28.02,31.45,14.60,48.81,1025.90,2028.01,2375.87,2310.73,2612.84,600.44,598.25,45.37,0000 0000 0000 0000 000000
2016-03-06 09:36:39,0.11,3.40,0.00,24.76,28.00,31.43,14.48,48.89,1025.90,2028.01,2374.36,2309.65,2611.66,599.67,597.59,45.42,0000 0000 0000 0000 000000
2016-03-06 09:41:41,0.12,3.40,0.00,24.78,28.00,31.43,14.59,48.85,1025.90,2028.02,2372.77,2308.59,2610.50,600.10,597.97,45.47,0000 0000 0000 0000 000000
2016-03-06 09:46:41,0.10,3.41,0.00,24.77,28.00,31.43,14.59,48.89,1025.90,2028.04,2371.17,2307.42,2609.21,600.33,598.27,45.52,0000 0000 0000 0000 000000
2016-03-06 09:51:43,0.11,3.41,0.00,24.79,27.99,31.42,14.48,48.92,1025.90,2028.08,2369.68,2306.39,2607.98,599.77,597.67,45.57,0000 0000 0000 0000 000000
2016-03-06 09:56:44,0.12,3.42,0.00,24.78,27.97,31.41,14.46,48.82,1025.90,2028.11,2368.09,2305.26,2606.68,599.70,597.58,45.62,0000 0000 0000 0000 000000
2016-03-06 10:01:45,0.10,3.43,0.00,24.80,27.97,31.40,14.55,48.88,1025.91,2028.05,2366.70,2304.11,2605.42,599.97,597.79,45.67,0000 0000 0000 0000 000000
2016-03-06 10:06:46,0.11,3.43,0.00,24.79,27.97,31.39,14.53,48.81,1025.93,2028.10,2365.18,2303.04,2604.17,600.12,598.04,45.72,0000 0000 0000 0000 000000
2016-03-06 10:11:48,0.12,3.44,0.00,24.78,27.97,31.38,14.47,48.88,1025.92,2028.09,2363.54,2301.91,2602.82,599.83,597.78,45.77,0000 0000 0000 0000 000000
2016-03-06 10:16:49,0.13,3.44,0.00,24.78,27.95,31.38,14.64,49.08,1025.91,2028.09,2361.92,2300.77,2601.58,600.07,597.87,45.82,0000 0000 0000 0000 000000
2016-03-06 10:21:50,0.13,3.45,0.00,24.78,27.95,31.37,14.58,49.03,1025.91,2028.25,2360.44,2299.70,2600.34,600.12,597.99,45.87,0000 0000 0000 0000 000000
2016-03-06 10:26:51,0.12,3.46,0.00,24.78,27.95,31.37,14.57,49.01,1025.90,2028.41,2359.05,2298.70,2599.18,600.22,598.15,45.92,0000 0000 0000 0000 000000
2016-03-06 10:31:52,0.06,3.46,0.00,24.79,27.95,31.36,14.54,48.89,1025.90,2028.21,2357.67,2297.69,2597.98,599.89,597.79,45.97,0000 0000 0000 0000 000000
2016-03-06 10:36:54,0.11,3.47,0.00,24.78,27.94,31.35,14.55,48.94,1025.90,2028.25,2356.31,2296.70,2596.92,600.08,598.02,46.02,0000 0000 0000 0000 000000
2016-03-06 10:41:55,0.12,3.47,0.00,24.77,27.92,31.37,14.54,48.88,1025.90,2028.56,2355.01,2295.85,2595.87,600.18,598.01,46.07,0000 0000 0000 0000 000000
2016-03-06 10:46:56,0.10,3.48,0.00,24.75,27.92,31.35,14.49,49.01,1025.89,2028.61,2353.75,2294.88,2594.80,599.93,597.88,46.12,0000 0000 0000 0000 000000
2016-03-06 10:51:58,0.08,3.48,0.00,24.73,27.92,31.35,14.49,49.04,1025.90,2028.55,2352.46,2293.87,2593.72,599.98,597.87,46.17,0000 0000 0000 0000 000000
2016-03-06 10:56:59,0.09,3.49,0.00,24.71,27.90,31.36,14.53,49.03,1025.87,2028.51,2351.12,2292.94,2592.61,599.84,597.91,46.22,0000 0000 0000 0000 000000
2016-03-06 11:02:00,0.12,3.49,0.00,24.73,27.90,31.34,14.50,48.93,1025.83,2028.66,2349.83,2292.04,2591.63,599.99,598.00,46.28,0000 0000 0000 0000 000000
2016-03-06 11:07:02,0.08,3.50,0.00,24.72,27.90,31.36,14.57,48.98,1025.89,2028.56,2348.53,2291.12,2590.50,600.09,598.36,46.33,0000 0000 0000 0000 000000
2016-03-06 11:12:03,0.12,3.50,0.00,24.73,27.90,31.35,14.58,48.86,1025.85,2028.85,2347.38,2290.26,2589.66,600.34,598.23,46.38,0000 0000 0000 0000 000000
2016-03-06 11:17:04,0.09,3.51,0.00,24.75,27.87,31.35,14.53,49.17,1025.89,2028.92,2346.14,2289.46,2588.69,599.80,597.78,46.43,0000 0000 0000 0000 000000
2016-03-06 11:22:05,0.10,3.51,0.00,24.72,27.87,31.34,14.55,48.74,1025.90,2028.90,2344.82,2288.58,2587.66,600.03,598.02,46.48,0000 0000 0000 0000 000000
2016-03-06 11:27:06,0.08,3.52,0.00,24.72,27.87,31.34,14.59,48.97,1025.90,2028.93,2343.68,2287.76,2586.71,600.08,598.00,46.53,0000 0000 0000 0000 000000
2016-03-06 11:32:08,0.08,3.52,0.00,24.71,27.86,31.35,14.53,48.88,1025.90,2028.96,2342.53,2286.89,2585.76,600.31,598.24,46.58,0000 0000 0000 0000 000000
2016-03-06 11:37:09,0.08,3.53,0.00,24.75,27.85,31.35,14.53,48.75,1025.90,2028.97,2341.35,2286.02,2584.80,599.93,597.91,46.63,0000 0000 0000 0000 000000
2016-03-06 11:42:10,0.08,3.53,0.00,24.74,27.85,31.33,14.43,48.75,1025.92,2028.96,2340.27,2285.16,2583.86,599.70,597.75,46.68,0000 0000 0000 0000 000000
2016-03-06 11:47:12,0.08,3.54,0.00,24.71,27.85,31.34,14.60,48.89,1025.90,2028.95,2339.25,2284.36,2582.91,599.87,597.84,46.73,0000 0000 0000 0000 000000
2016-03-06 11:52:13,0.08,3.54,0.00,24.70,27.85,31.33,14.55,48.85,1025.90,2028.96,2338.18,2283.67,2581.98,599.94,598.02,46.78,0000 0000 0000 0000 000000
2016-03-06 11:57:14,0.07,3.55,0.00,24.73,27.85,31.33,14.48,49.00,1025.90,2028.95,2337.13,2282.86,2581.05,599.98,597.96,46.83,0000 0000 0000 0000 000000
2016-03-06 12:02:15,0.08,3.55,0.00,24.70,27.85,31.34,14.57,48.94,1025.90,2028.97,2336.08,2282.03,2580.12,600.27,598.34,46.88,0000 0000 0000 0000 000000
2016-03-06 12:07:16,0.09,3.55,0.00,24.72,27.85,31.33,14.57,48.81,1025.91,2028.95,2334.97,2281.18,2579.18,599.80,597.75,46.93,0000 0000 0000 0000 000000
2016-03-06 12:12:18,0.08,3.56,0.00,24.71,27.84,31.34,14.55,48.78,1025.91,2028.94,2333.93,2280.45,2578.31,599.56,597.58,46.98,0000 0000 0000 0000 000000
2016-03-06 12:17:19,0.08,3.56,0.00,24.71,27.83,31.34,14.56,48.69,1025.90,2028.92,2332.89,2279.74,2577.36,599.98,597.96,47.03,0000 0000 0000 0000 000000
2016-03-06 12:22:20,0.08,3.57,0.00,24.71,27.83,31.34,14.61,48.72,1025.90,2028.91,2331.79,2278.95,2576.42,600.27,598.29,47.08,0000 0000 0000 0000 000000
2016-03-06 12:27:21,0.08,3.57,0.00,24.67,27.82,31.34,14.60,48.77,1025.92,2028.94,2330.78,2278.10,2575.70,600.14,598.28,47.13,0000 0000 0000 0000 000000
2016-03-06 12:32:23,0.07,3.57,0.00,24.67,27.82,31.33,14.55,48.66,1025.91,2028.95,2329.81,2277.46,2574.84,600.08,598.11,47.18,0000 0000 0000 0000 000000
2016-03-06 12:37:24,0.07,3.58,0.00,24.70,27.82,31.33,14.57,48.67,1025.91,2028.91,2328.77,2276.70,2573.93,600.10,598.15,47.24,0000 0000 0000 0000 000000
2016-03-06 12:42:25,0.06,3.58,0.00,24.67,27.82,31.34,14.51,48.59,1025.90,2028.87,2327.75,2275.98,2573.04,599.99,597.93,47.29,0000 0000 0000 0000 000000
2016-03-06 12:47:26,0.09,3.59,0.00,24.68,27.82,31.33,14.56,48.58,1025.90,2028.87,2326.72,2275.12,2572.15,600.05,598.11,47.34,0000 0000 0000 0000 000000
2016-03-06 12:52:28,0.08,3.59,0.00,24.64,27.80,31.34,14.57,48.73,1025.89,2028.88,2325.83,2274.53,2571.42,600.19,598.27,47.39,0000 0000 0000 0000 000000
2016-03-06 12:57:29,0.05,3.59,0.00,24.62,27.80,31.34,14.60,48.75,1025.89,2028.92,2324.95,2273.95,2570.71,600.16,598.37,47.44,0000 0000 0000 0000 000000